Flag for Switzerland Weather past 2 weeks in Uster, Zurich, Switzerland

Now
61 °F

Refreshingly cool.


Feels Like: 61 °F
Forecast: 52 / 76 °F
Wind: 10 mph from Northeast

Location: Zurich Town / Ville.

Current Time: Jul 31, 2015 at 11:24:09 AM

Latest Report: Jul 31, 2015 at 10:00 AM


Visibility: N/A

Pressure: 30.01 "Hg

Humidity: 56%

Dew point: 45 °F

Location of UsterLocation

Historic Weather in Uster — Graph

°F

Uster temperature yesterday

Maximum temperature yesterday: 69 °F (at 3:00 PM)
Minimum temperature yesterday: 52 °F (at 6:00 AM)
Average temperature yesterday: 61 °F

Past Weeks' High & Low Weather Summary

 TemperatureHumidityPressure
High92 °F (Jul 21, 5:00 PM)98% (Jul 27, 2:00 AM)30.17 "Hg (Jul 27, 2:00 AM)
Low51 °F (Jul 31, 6:00 AM)24% (Jul 16, 4:00 PM)29.66 "Hg (Jul 24, 5:00 PM)
Average70 °F65%29.93 "Hg
* Reported Jul 16 10:00 AM — Jul 31 10:00 AM, Uster, Weather by CustomWeather, © 2015

Note: Actual official high and low records may vary slightly from our data, if they occured in-between our weather recording intervals... More about our weather records

Advertising

Uster weather history for previous 24 hours

 ConditionsComfort  
Time TempWeatherWind HumidityBarometerVisibility
10:00 AM
Fri, Jul 31
61 °FRefreshingly cool.10 mph56%30.01 "HgN/A
9:00 AM58 °FCool.6 mph61%30.04 "HgN/A
8:00 AM54 °FCool.6 mph71%30.05 "HgN/A
7:00 AM52 °FCool.1 mph73%30.06 "HgN/A
6:00 AM51 °FCool.6 mph76%30.07 "HgN/A
4:00 AM55 °FCool.3 mph67%30.07 "HgN/A
3:00 AM54 °FCool.3 mph71%30.08 "HgN/A
2:00 AM56 °FCool.5 mph62%30.06 "HgN/A
1:00 AM57 °FCool.6 mph60%30.06 "HgN/A
12:00 AM59 °FRefreshingly cool.3 mph57%30.06 "HgN/A
11:00 PM
Thu, Jul 30
62 °FRefreshingly cool.6 mph47%30.03 "HgN/A
10:00 PM63 °FMild.3 mph44%30.02 "HgN/A
9:00 PM64 °FMild.2 mph42%30.00 "HgN/A
8:00 PM66 °FMild.3 mph40%29.97 "HgN/A
7:00 PM68 °FMild.3 mph38%29.96 "HgN/A
6:00 PM67 °FMild.3 mph37%29.96 "HgN/A
5:00 PM69 °FMild.5 mph34%29.95 "HgN/A
4:00 PM66 °FMild.6 mph39%29.97 "HgN/A
3:00 PM69 °FMild.7 mph43%29.96 "HgN/A
2:00 PM65 °FScattered clouds.3 mph37%29.98 "HgN/A
1:00 PM65 °FMild.6 mph42%29.99 "HgN/A
12:00 PM63 °FMild.6 mph47%30.01 "HgN/A
Weather by CustomWeather, © 2015

See weather overviewHow to use our weather pages